Location: Newark
(3.3223°N, 76.2348°W)
Time: 04:37:27
(UTC+00:00)

BEESAT 2 - Pass Details

Date: 26 January 2020
Orbit: 493 x 534 km, 64.9° (Epoch: 27 February)

Event Time Altitude Azimuth Distance (km) Brightness Sun altitude
Rises 00:11:06 0° 207° (SSW) 2,585 ? -13.8°
Reaches altitude 10° 00:13:16 10° 210° (SSW) 1,706 ? -14.3°
Maximum altitude 00:17:02 65° 291° (WNW) 559 ? -15.2°
Enters shadow 00:20:23 13° 13° (NNE) 1,535 ? -16.0°
